Location: Stuttgart
(48.8069°N, 9.1544°E)
Time: 06:48:52
(UTC+01:00)

N. Korean satellite - Visible Passes

Search period start: 19 January 2018 00:00
Search period end: 29 January 2018 00:00
Orbit: 459 x 515 km, 97.2° (Epoch: 18 January)

Date Brightness Start Highest point End Pass type
(mag) Time Alt. Az. Time Alt. Az. Time Alt. Az.
19 Jan 7.8 06:53:21 10° NNE 06:56:42 44° E 07:00:00 10° S visible
19 Jan 7.3 17:33:20 10° SE 17:36:33 32° ENE 17:39:45 10° N visible
19 Jan 9.4 19:07:23 10° SW 19:10:08 20° W 19:12:52 10° NW visible
20 Jan 9.1 06:30:04 10° NE 06:32:55 23° E 06:35:44 10° SSE visible
20 Jan 8.2 18:42:59 10° SSW 18:46:21 37° W 18:49:41 10° NNW visible
21 Jan 9.9 06:07:21 10° ENE 06:09:03 13° E 06:10:44 10° ESE visible
21 Jan 6.8 18:19:03 10° S 18:22:37 72° WSW 18:26:10 10° NNW visible
22 Jan 6.5 07:15:44 10° NNE 07:19:13 87° ESE 07:22:40 10° SSW visible
22 Jan 6.5 17:55:28 10° SSE 17:58:58 58° ENE 18:02:27 10° N visible
22 Jan 10.1 19:31:33 10° WSW 19:32:50 12° W 19:34:06 10° WNW visible
23 Jan 7.9 06:52:10 10° NNE 06:55:30 43° E 06:58:48 10° S visible
23 Jan 9.4 19:06:13 10° SW 19:08:57 21° W 19:11:41 10° NW visible
24 Jan 9.2 06:28:54 10° NE 06:31:43 23° E 06:34:32 10° SSE visible
24 Jan 8.2 18:41:50 10° SSW 18:45:09 37° W 18:48:28 10° NNW visible
25 Jan 10.0 06:06:12 10° ENE 06:07:50 13° E 06:09:28 10° ESE visible
25 Jan 6.7 18:17:53 10° S 18:21:26 74° WSW 18:24:56 10° NNW visible
26 Jan 6.5 07:14:31 10° NNE 07:18:00 84° ESE 07:21:29 10° SSW visible
26 Jan 6.6 17:54:18 10° SSE 17:57:46 56° ENE 18:01:13 10° N visible
26 Jan 10.1 19:30:20 10° WSW 19:31:37 12° W 19:32:55 10° WNW visible
27 Jan 7.9 06:50:57 10° NNE 06:54:17 42° E 06:57:35 10° S visible
27 Jan 9.3 19:05:01 10° SW 19:07:45 21° W 19:10:26 10° NW visible
28 Jan 9.3 06:27:40 10° NE 06:30:28 22° E 06:33:17 10° SSE visible
28 Jan 8.1 18:40:38 10° SSW 18:43:56 38° W 18:47:13 10° NNW visible
